Location: Sternwarte-Kraichtal
(49.1689°N, 8.6996°E)
Time: 20:28:36
(UTC+02:00)

Vanguard 2 Rocket - Pass Details

Date: 04 June 2022
Orbit: 553 x 3323 km, 32.9° (Epoch: 02 July)

Event Time Altitude Azimuth Distance (km) Brightness Sun altitude
Rises 09:25:16 0° 184° (S) 6,205 11.2 36.5°
Reaches altitude 10° 09:31:27 10° 167° (SSE) 5,647 11.3 37.5°
Maximum altitude 09:41:09 17° 133° (SE) 5,505 11.9 39.1°
Drops below altitude 10° 09:51:43 10° 101° (E) 6,282 12.4 40.8°
Sets 09:59:11 0° 85° (E) 7,201 12.2 41.9°
